[[{"header":{"parameterUnit":"m.s-1","parameterCategory":1,"la1":30.2991,"la2":30.254,"lo1":-89.0895,"lo2":-89.0444,"dy":0.0017,"dx":0.0017,"nx":28,"ny":28,"refTime":"2024-10-07T09:00:00:Z","depth":0,"parameterNumber":2,"parameterNumberName":"U-component_of_WINDS"},"data":[0,0,0,0,0,0,0,0,0,0,0,0,0,0,0,0,0,0,0,0,0,0,0,0,0,0,0,0,0,0,0,0,0,0,0,0,0,0,0,0,0,0,0,0,0,0,0,0,0,0,0,0,0,0,0,0,0,0,-2.1389,-2.139,0,-2.1474,-2.1475,-2.1476,-2.1431,-2.1429,-2.1427,-2.1425,-2.1514,-2.1519,-2.1523,0,0,0,0,0,0,0,0,0,0,0,0,0,-2.1189,-2.1193,-2.1389,-2.139,-2.1391,-2.1474,-2.1475,-2.1476,-2.1432,-2.1429,-2.1426,-2.1424,-2.1513,-2.1518,-2.1524,0,0,0,0,0,0,0,0,0,0,0,0,0,-2.1276,-2.1195,-2.1389,-2.1379,-2.1379,-2.1474,-2.1475,-2.1477,-2.1432,-2.1429,-2.1426,-2.1422,-2.1511,-2.1518,-2.1525,-2.1635,0,0,-2.1545,-2.1548,0,0,0,0,0,0,0,0,-2.1271,-2.1283,-2.1379,-2.138,-2.138,-2.1439,-2.1438,-2.153,-2.1433,-2.1412,-2.1425,-2.1421,-2.1492,-2.15,-2.1524,-2.1639,-2.1643,-2.1546,-2.155,-2.1553,-2.1555,0,0,0,0,0,0,0,-2.1265,-2.1279,-2.1423,-2.1381,-2.1381,-2.1371,-2.1379,-2.1455,-2.1471,-2.1414,-2.1411,-2.1421,-2.1492,-2.1518,-2.1526,-2.1644,-2.1546,-2.1552,-2.1556,-2.1559,-2.1855,-2.1859,0,0,0,0,0,0,-2.1259,-2.1274,-2.142,-2.1425,-2.1316,-2.1377,-2.1386,-2.1423,-2.147,-2.1473,-2.1424,-2.1419,-2.1508,-2.1518,-2.1529,-2.1662,-2.1553,-2.1559,-2.1563,-2.1851,-2.1856,-2.186,0,0,0,0,0,0,-2.1255,-2.1273,-2.1417,-2.1349,-2.1367,-2.1384,-2.1426,-2.1427,-2.1453,-2.1477,-2.148,-2.1448,-2.1505,-2.1519,-2.1609,-2.1664,-2.1562,-2.1568,-2.1847,-2.1853,-2.1858,-2.1929,0,0,0,0,0,0,-2.125,-2.1271,-2.1313,-2.135,-2.137,-2.1495,-2.1429,-2.1431,-2.1464,-2.1458,-2.15,-2.1504,-2.1504,-2.1599,-2.1616,-2.1672,-2.1574,-2.1842,-2.185,-2.1856,-2.1922,-2.1936,-2.1949,0,0,0,0,0,-2.1243,-2.133,-2.1316,-2.1334,-2.1423,-2.1498,-2.151,-2.1508,-2.1469,-2.1511,-2.1527,-2.1502,-2.1655,-2.1609,-2.1627,-2.1686,-2.1839,-2.1847,-2.1856,-2.1916,-2.1934,-2.1949,0,0,0,0,0,0,-2.13,-2.1335,-2.1319,-2.1421,-2.1457,-2.1491,-2.1545,-2.1526,-2.1575,-2.1567,-2.1562,-2.1572,-2.1666,-2.1684,-2.1632,-2.1796,-2.1741,-2.1754,-2.178,-2.1797,-2.1811,-2.1805,-2.1579,0,0,0,0,0,-2.1325,-2.1383,-2.141,-2.1497,-2.1516,-2.1527,-2.156,-2.1555,-2.1592,-2.1607,-2.163,-2.1667,-2.1724,-2.1761,-2.1815,-2.1923,-2.1933,-2.1973,-2.1987,-2.1998,-2.2009,-2.2069,-2.2088,-2.1888,-2.1888,-2.1888,0,0,-2.1377,-2.1402,-2.1439,-2.151,-2.1537,-2.1598,-2.1541,-2.1607,-2.1652,-2.1618,-2.1704,-2.1721,-2.1763,-2.1863,-2.1908,-2.1882,-2.2066,-2.2009,-2.2017,-2.2023,-2.208,-2.2099,-2.2115,-2.1894,-2.1893,-2.1892,0,0,-2.1502,-2.1527,-2.1603,-2.1631,-2.1672,-2.1679,-2.1697,-2.1733,-2.1744,-2.183,-2.1805,-2.1859,-2.1956,-2.1987,-2.2015,-2.2151,-2.2131,-2.2168,-2.224,-2.2298,-2.2314,-2.2328,-2.2378,-2.2396,-2.218,-2.218,-2.218,0,-2.1561,-2.1651,-2.1644,-2.1713,-2.1745,-2.1715,-2.1792,-2.182,-2.1877,-2.19,-2.1869,-2.199,-2.2016,-2.2123,-2.2157,-2.218,-2.2202,-2.2165,-2.2312,-2.2326,-2.2339,-2.2387,-2.2405,-2.2184,-2.2184,-2.2183,-2.2183,0,-2.1722,-2.1785,-2.1841,-2.1897,-2.1935,-2.2007,-2.2012,-2.2052,-2.2043,-2.2053,-2.2141,-2.2171,-2.223,-2.2254,-2.2246,-2.2361,-2.2343,-2.2312,-2.2258,-2.2363,-2.2407,-2.2425,-2.2191,-2.2189,-2.2188,-2.2187,0,0,-2.1889,-2.1938,-2.1959,-2.1984,-2.2027,-2.2076,-2.2147,-2.2203,-2.2238,-2.2278,-2.2338,-2.242,-2.2392,-2.2424,-2.2419,-2.247,-2.2577,-2.2433,-2.2434,-2.2461,-2.2706,-2.2731,-2.2752,-2.2563,-2.2566,-2.2569,-2.2703,0,-2.2018,-2.2142,-2.2138,-2.2254,-2.2312,-2.2284,-2.2346,-2.2379,-2.239,-2.2442,-2.2454,-2.2513,-2.247,-2.249,-2.2538,-2.2554,-2.2627,-2.2544,-2.2621,-2.2624,-2.2613,-2.2775,-2.2801,-2.2926,-2.272,-2.2723,-2.2725,0,-2.2186,-2.2231,-2.2353,-2.2387,-2.2411,-2.2467,-2.2519,-2.2568,-2.2605,-2.2609,-2.2645,-2.2632,-2.2705,-2.2646,-2.2747,-2.2691,-2.2721,-2.2734,-2.2738,-2.2747,-2.2682,-2.279,-2.2966,-2.2985,-2.2753,-2.275,-2.2748,0,-2.2297,-2.2388,-2.2473,-2.2494,-2.2536,-2.2576,-2.2595,-2.2629,-2.2663,-2.2708,-2.2731,-2.2784,-2.2814,-2.2855,-2.2857,-2.2814,-2.2959,-2.2901,-2.2966,-2.2967,-2.3,-2.2998,-2.3185,-2.3017,-2.3016,-2.3016,-2.3016,0,-2.2443,-2.2519,-2.2523,-2.2575,-2.266,-2.2654,-2.2738,-2.2753,-2.2783,-2.2838,-2.2816,-2.2869,-2.2867,-2.2921,-2.2922,-2.3006,-2.3019,-2.3026,-2.3026,-2.3029,-2.3028,-2.3051,-2.3043,-2.3021,-2.302,-2.3019,-2.3018,0,-2.2583,-2.2588,-2.2679,-2.271,-2.2719,-2.2781,-2.2808,-2.2858,-2.2866,-2.2936,-2.2952,-2.2966,-2.3027,-2.3033,-2.3104,-2.3105,-2.3207,-2.3197,-2.3195,-2.3194,-2.326,-2.3254,-2.3469,-2.3498,-2.3309,-2.331,-2.3312,0,-2.2677,-2.2734,-2.2772,-2.2807,-2.2828,-2.2885,-2.2919,-2.2915,-2.2953,-2.2999,-2.3044,-2.3103,-2.315,-2.325,-2.3267,-2.3322,-2.3314,-2.3385,-2.3322,-2.3324,-2.3317,-2.3314,-2.3321,-2.3398,-2.34,-2.3402,-2.3403,0,-2.2843,-2.2843,-2.2893,-2.2945,-2.2987,-2.3027,-2.3065,-2.3095,-2.3095,-2.3138,-2.3201,-2.3238,-2.331,-2.337,-2.3423,-2.3444,-2.3425,-2.3423,-2.3441,-2.3446,-2.3443,-2.3447,-2.3231,-2.3419,-2.3417,-2.3416,-2.3415,-2.3415,-2.2964,-2.3014,-2.3048,-2.3105,-2.3133,-2.3168,-2.3217,-2.3231,-2.3283,-2.3341,-2.3335,-2.3405,-2.344,-2.351,-2.3534,-2.3589,-2.3565,-2.3591,-2.3598,-2.3605,-2.3613,-2.3433,-2.3598,-2.3598,-2.3598,-2.3597,-2.3597,0,-2.3131,-2.3151,-2.3203,-2.3257,-2.3302,-2.3277,-2.3318,-2.3357,-2.3419,-2.3453,-2.35,-2.3571,-2.3629,-2.3649,-2.3706,-2.3746,-2.3738,-2.3761,-2.3759,-2.3764,-2.363,-2.361,-2.3766,-2.3766,-2.3766,-2.3766,-2.3766,-2.3766,-2.3223,-2.3307,-2.331,-2.3408,-2.3427,-2.3495,-2.352,-2.3553,-2.358,-2.3661,-2.3709,-2.3721,-2.375,-2.3808,-2.386,-2.3865,-2.3887,-2.3914,-2.3915,-2.379,-2.3773,-2.3757,-2.3738,-2.3918,-2.3918,-2.4044,-2.4045,-2.4046]},{"header":{"parameterUnit":"m.s-1","parameterCategory":1,"la1":30.2991,"la2":30.254,"lo1":-89.0895,"lo2":-89.0444,"dy":0.0017,"dx":0.0017,"nx":28,"ny":28,"refTime":"2024-10-07T09:00:00:Z","depth":0,"parameterNumber":3,"parameterNumberName":"V-component_of_WINDS"},"data":[0,0,0,0,0,0,0,0,0,0,0,0,0,0,0,0,0,0,0,0,0,0,0,0,0,0,0,0,0,0,0,0,0,0,0,0,0,0,0,0,0,0,0,0,0,0,0,0,0,0,0,0,0,0,0,0,0,0,-5.7442,-5.7442,0,-5.7492,-5.7493,-5.7493,-5.7399,-5.7396,-5.7393,-5.739,-5.7437,-5.7441,-5.7445,0,0,0,0,0,0,0,0,0,0,0,0,0,-5.7259,-5.7263,-5.7441,-5.7442,-5.7443,-5.7492,-5.7493,-5.7493,-5.7399,-5.7396,-5.7392,-5.7388,-5.7436,-5.7441,-5.7446,0,0,0,0,0,0,0,0,0,0,0,0,0,-5.7327,-5.7264,-5.7441,-5.7402,-5.7399,-5.7492,-5.7493,-5.7493,-5.74,-5.7396,-5.7391,-5.7387,-5.7434,-5.744,-5.7446,-5.7578,0,0,-5.7465,-5.7468,0,0,0,0,0,0,0,0,-5.7323,-5.7333,-5.7407,-5.7405,-5.7402,-5.7434,-5.7445,-5.7522,-5.7401,-5.74,-5.739,-5.7384,-5.744,-5.7445,-5.7465,-5.758,-5.7583,-5.7466,-5.747,-5.7472,-5.7474,0,0,0,0,0,0,0,-5.7318,-5.7331,-5.7461,-5.7408,-5.7405,-5.738,-5.7385,-5.7459,-5.7445,-5.7399,-5.7393,-5.74,-5.7437,-5.7459,-5.7465,-5.7583,-5.7466,-5.7471,-5.7475,-5.7478,-5.7809,-5.7814,0,0,0,0,0,0,-5.7319,-5.7327,-5.746,-5.7463,-5.735,-5.7387,-5.7392,-5.7429,-5.7444,-5.7442,-5.7404,-5.7396,-5.7451,-5.7458,-5.7466,-5.7622,-5.7472,-5.7478,-5.7482,-5.7804,-5.781,-5.7815,0,0,0,0,0,0,-5.7316,-5.7332,-5.7458,-5.7393,-5.7407,-5.7395,-5.7437,-5.7432,-5.7454,-5.7448,-5.7444,-5.7429,-5.7447,-5.7458,-5.7551,-5.7622,-5.7481,-5.7487,-5.7798,-5.7806,-5.7813,-5.7934,0,0,0,0,0,0,-5.7311,-5.7331,-5.7383,-5.7395,-5.7411,-5.7544,-5.7441,-5.7436,-5.7465,-5.7455,-5.747,-5.7468,-5.7444,-5.7542,-5.7558,-5.7628,-5.7491,-5.7791,-5.7801,-5.781,-5.7923,-5.7945,-5.7963,0,0,0,0,0,-5.7305,-5.7414,-5.7386,-5.7402,-5.7476,-5.7548,-5.7557,-5.7528,-5.7471,-5.7522,-5.7518,-5.7468,-5.7612,-5.7553,-5.7569,-5.7642,-5.7787,-5.7798,-5.7809,-5.7915,-5.794,-5.7962,0,0,0,0,0,0,-5.7408,-5.7415,-5.7384,-5.7501,-5.7525,-5.7532,-5.7595,-5.7556,-5.7596,-5.7584,-5.7545,-5.7549,-5.7651,-5.7655,-5.759,-5.777,-5.7689,-5.7705,-5.7764,-5.7788,-5.7808,-5.7804,-5.7497,0,0,0,0,0,-5.7445,-5.7505,-5.7506,-5.7609,-5.7623,-5.7608,-5.7638,-5.7614,-5.7636,-5.7645,-5.7648,-5.7671,-5.7721,-5.7755,-5.78,-5.7923,-5.7925,-5.7982,-5.8001,-5.8018,-5.8031,-5.8096,-5.8121,-5.7853,-5.7853,-5.7852,0,0,-5.7521,-5.7532,-5.7572,-5.7631,-5.7646,-5.7708,-5.7616,-5.7685,-5.773,-5.7655,-5.7744,-5.7747,-5.777,-5.7879,-5.7927,-5.7886,-5.8105,-5.8032,-5.8045,-5.805,-5.811,-5.8135,-5.8158,-5.786,-5.7859,-5.7858,0,0,-5.7691,-5.7705,-5.7793,-5.7811,-5.7836,-5.7825,-5.7846,-5.7859,-5.7859,-5.7948,-5.7893,-5.7944,-5.8032,-5.805,-5.8071,-5.8247,-5.8203,-5.8263,-5.8366,-5.8429,-5.845,-5.8469,-5.8531,-5.8554,-5.8277,-5.8277,-5.8277,0,-5.7781,-5.7873,-5.7842,-5.7915,-5.7942,-5.7879,-5.7966,-5.7984,-5.8023,-5.8042,-5.7996,-5.8104,-5.8115,-5.8227,-5.827,-5.8289,-5.8311,-5.8261,-5.845,-5.8468,-5.8485,-5.8544,-5.8568,-5.8284,-5.8283,-5.8283,-5.8282,0,-5.7983,-5.8048,-5.8115,-5.8156,-5.819,-5.827,-5.8249,-5.8287,-5.826,-5.8253,-5.8343,-5.8354,-5.8401,-5.8425,-5.8399,-5.8534,-5.8508,-5.8457,-5.8374,-5.8519,-5.8573,-5.8596,-5.8294,-5.8292,-5.829,-5.8288,0,0,-5.822,-5.8243,-5.8268,-5.8285,-5.8309,-5.8357,-5.8433,-5.848,-5.8514,-5.8542,-5.8604,-5.8679,-5.8632,-5.8656,-5.8631,-5.8687,-5.8825,-5.8628,-5.8628,-5.8664,-5.8974,-5.9012,-5.9039,-5.8796,-5.88,-5.8803,-5.8972,0,-5.8388,-5.8522,-5.8495,-5.8625,-5.8683,-5.8624,-5.869,-5.8711,-5.8706,-5.8754,-5.8747,-5.8802,-5.8736,-5.8749,-5.8802,-5.8797,-5.8887,-5.8785,-5.8852,-5.8855,-5.8849,-5.9068,-5.9109,-5.9267,-5.8993,-5.8997,-5.8999,0,-5.8603,-5.8642,-5.8778,-5.8791,-5.8815,-5.8875,-5.8916,-5.8963,-5.8984,-5.8976,-5.9003,-5.8967,-5.9041,-5.8958,-5.9059,-5.899,-5.9016,-5.9017,-5.9023,-5.9028,-5.8936,-5.9079,-5.9317,-5.9341,-5.9033,-5.903,-5.9028,0,-5.8762,-5.8847,-5.894,-5.8956,-5.8975,-5.9019,-5.9028,-5.9045,-5.9075,-5.911,-5.9129,-5.9171,-5.9195,-5.9228,-5.9204,-5.9146,-5.9308,-5.9223,-5.9303,-5.9304,-5.934,-5.9338,-5.9586,-5.9357,-5.9357,-5.9356,-5.9356,0,-5.8953,-5.9039,-5.9011,-5.9068,-5.9162,-5.913,-5.9223,-5.9224,-5.924,-5.9295,-5.9245,-5.9298,-5.9262,-5.9311,-5.9293,-5.9379,-5.9389,-5.9384,-5.9378,-5.9389,-5.939,-5.9406,-5.9394,-5.9362,-5.9361,-5.936,-5.9359,0,-5.9147,-5.9132,-5.9229,-5.9239,-5.9243,-5.9312,-5.9319,-5.9371,-5.9362,-5.9433,-5.9447,-5.9433,-5.9488,-5.9468,-5.9526,-5.9513,-5.9623,-5.9602,-5.9616,-5.9611,-5.9692,-5.9685,-5.9959,-5.9993,-5.9742,-5.9744,-5.9746,0,-5.927,-5.9334,-5.9351,-5.9386,-5.9399,-5.9454,-5.9485,-5.9455,-5.9489,-5.9518,-5.9567,-5.9617,-5.9657,-5.9747,-5.9741,-5.9785,-5.9765,-5.9858,-5.9771,-5.978,-5.9766,-5.9763,-5.9769,-5.9876,-5.9878,-5.9881,-5.9883,0,-5.949,-5.9479,-5.9526,-5.9571,-5.9609,-5.9643,-5.9671,-5.9701,-5.9673,-5.9713,-5.977,-5.98,-5.986,-5.9911,-5.995,-5.9957,-5.9916,-5.991,-5.9931,-5.9943,-5.9948,-5.9946,-5.9664,-5.9904,-5.9902,-5.99,-5.9899,-5.9898,-5.9651,-5.9706,-5.9727,-5.9781,-5.9799,-5.9827,-5.9877,-5.9875,-5.9922,-5.997,-5.9949,-6.0014,-6.0032,-6.0081,-6.0094,-6.0144,-6.0107,-6.0137,-6.0145,-6.0153,-6.0164,-5.9941,-6.015,-6.015,-6.0149,-6.0149,-6.0148,0,-5.9869,-5.9879,-5.9929,-5.9972,-6.0014,-5.9972,-6.0001,-6.0039,-6.0097,-6.0119,-6.0159,-6.0223,-6.0272,-6.0271,-6.0315,-6.0355,-6.0337,-6.0368,-6.0365,-6.0367,-6.0194,-6.0171,-6.0382,-6.0382,-6.0382,-6.0382,-6.0382,-6.0382,-5.9987,-6.0077,-6.0069,-6.0167,-6.0176,-6.0241,-6.0262,-6.0287,-6.0304,-6.0379,-6.042,-6.0419,-6.0431,-6.0476,-6.0518,-6.0516,-6.0535,-6.0574,-6.0565,-6.0403,-6.0379,-6.0357,-6.0336,-6.0578,-6.0578,-6.0734,-6.0735,-6.0736]}]]